Location: Newark
(44.3867°N, 6.6531°E)
Time: 23:14:28
(UTC+00:00)

Envisat - Pass Details

Date: 01 February 2020
Orbit: 764 x 766 km, 98.1° (Epoch: 19 February)

Event Time Altitude Azimuth Distance (km) Brightness Sun altitude
Rises 18:07:19 0° 192° (SSW) 3,218 6.5 -15.4°
Reaches altitude 10° 18:09:50 10° 202° (SSW) 2,297 5.9 -15.9°
Maximum altitude 18:14:19 31° 265° (W) 1,312 5.0 -16.7°
Drops below altitude 10° 18:18:50 10° 327° (NNW) 2,311 5.8 -17.5°
Sets 18:21:24 0° 338° (NNW) 3,242 6.4 -17.9°
